STAR ONE C2

Last updated on Sun Jun 21 2026 00:03:04 GMT+0000 (Coordinated Universal Time)

1 32768U 08018B 26171.37915707 -.00000281 00000+0 00000+0 0 9999 2 32768 1.2501 82.4387 0002592 11.9078 245.7346 1.00272898 66687
UTC large
Height (km)
Speed (km/s)
/
Latitude / Longitude
Inclination (degrees)
Orbital Period (minutes)
Azimuth
Elevation
Range (km)
Doppler Factor

Next 0 passes for location: London (51.5072 / 0.1276)

No passes found over London.
STAR ONE C2